Погода в Бекаси

Индонезия     6°15′57″S   106°57′50″E
темп.,
°C
ветер,
м/с
пор.,
м/с
влажн.,
%
обл.,
%
осадки,
мм/ч
давл.,
гПа
погр.,
м
1 марта, пн
пн101:00+29юв116796 0.0 1010321
04:00+29св0160100 0.0 1009417
07:00+29всв116193 0.0 1010289
10:00+34зюз243929 0.0 10111189
13:00+35сз554033 0.0 10091721
16:00+31ссз665966 0.6 1008824
19:00+28ссв347083 8.7 1010440
22:00+29всв0167100 0.1 1011571
2 марта, вт
вт201:00+28с1268100 0.2 1010654
04:00+28ссз346997 1.8 1009556
07:00+29сз246798 2.0 1011832
10:00+32сз445269 2.2 10121326
13:00+33сз664857 2.8 10091329
16:00+32ссз555066 0.5 1007991
19:00+29ссз356683 4.3 1010448
22:00+30ссз2261100 3.8 1012692
3 марта, ср
ср301:00+29вюв116899 4.0 1010356
04:00+27вюв2376100 0.1 1009247
07:00+27вюв227392 0.1 1010303
10:00+32св115430 0.0 10111122
13:00+33ссз434959 0.4 10091397
16:00+31с556092 2.3 1008965
19:00+29ссз236896 8.3 1010488
22:00+29с226393 1.0 1012504
4 марта, чт
чт401:00+28ююв126891 3.1 1011217
04:00+28в016591 0.1 1010382
07:00+27в226789 0.1 1012410
10:00+32всв225042 0.0 10121227
13:00+34ссз434443 0.0 10101577
16:00+33ссз54512 0.0 1008966
19:00+30ссз235951 1.9 1010769
22:00+29ссв1162100 2.6 1012442
5 марта, пт
пт501:00+28в2369100 3.0 1011324
04:00+28вюв1173100 0.0 1010323
07:00+28ссв0169100 0.0 1011486
10:00+33с224731 0.0 10121255
13:00+34с544516 0.0 10091544
16:00+32с445563 0.4 10071049
19:00+29ссв336778 1.6 1009574
22:00+28ссз2266100 4.9 1011486